| time (UTC) | temp F | wind direction | speed MPH | gust MPH | rain 1hr in | rain 24hr in | rain mn in | humidity % | barometer mb |
| 20260505161709 | 49 | 324 | 3.0 | 3.0 | 0.00 | 0.00 | 0.00 | 63 | 1014.1 |
| 20260505161207 | 48 | 62 | 1.0 | 2.0 | 0.00 | 0.00 | 0.00 | 64 | 1014.1 |
| 20260505160704 | 48 | 262 | 2.0 | 2.0 | 0.00 | 0.00 | 0.00 | 63 | 1014.6 |
| 20260505160201 | 48 | 234 | 3.0 | 3.0 | 0.00 | 0.00 | 0.00 | 62 | 1014.3 |
| 20260505153140 | 47 | 266 | 4.0 | 5.0 | 0.00 | 0.00 | 0.00 | 67 | 1014.3 |
| 20260505152637 | 47 | 243 | 7.0 | 9.0 | 0.00 | 0.00 | 0.00 | 69 | 1014.4 |
| 20260505152133 | 47 | 264 | 5.0 | 5.0 | 0.00 | 0.00 | 0.00 | 68 | 1014.2 |
| 20260505151628 | 46 | 246 | 3.0 | 3.0 | 0.00 | 0.00 | 0.00 | 70 | 1014.4 |
| 20260505151126 | 46 | 264 | 5.0 | 5.0 | 0.00 | 0.00 | 0.00 | 71 | 1014.4 |
| 20260505150622 | 46 | 252 | 5.0 | 7.0 | 0.00 | 0.00 | 0.00 | 72 | 1014.4 |
| 20260505150119 | 46 | 261 | 4.0 | 5.0 | 0.00 | 0.00 | 0.00 | 77 | 1014.6 |
| 20260505140548 | 48 | 279 | 5.0 | 5.0 | 0.00 | 0.00 | 0.00 | 60 | 1014.6 |
| 20260505125001 | 47 | 265 | 1.0 | 2.0 | 0.00 | 0.00 | 0.00 | 58 | 1013.9 |
| 20260505124458 | 47 | 241 | 2.0 | 2.0 | 0.00 | 0.00 | 0.00 | 57 | 1013.9 |
| 20260505123954 | 47 | 270 | 2.0 | 3.0 | 0.00 | 0.00 | 0.00 | 57 | 1014.1 |
| 20260505123451 | 47 | 260 | 2.0 | 3.0 | 0.00 | 0.00 | 0.00 | 56 | 1014.3 |
| 20260505122947 | 47 | 254 | 3.0 | 3.0 | 0.00 | 0.00 | 0.00 | 55 | 1014.4 |
| 20260505122444 | 48 | 244 | 3.0 | 5.0 | 0.00 | 0.00 | 0.00 | 55 | 1014.1 |
| 20260505121941 | 48 | 258 | 3.0 | 5.0 | 0.00 | 0.00 | 0.00 | 55 | 1014.3 |
| 20260505121438 | 48 | 285 | 3.0 | 7.0 | 0.00 | 0.00 | 0.00 | 54 | 1014.1 |
| 20260505120933 | 48 | 274 | 3.0 | 3.0 | 0.00 | 0.00 | 0.00 | 54 | 1014.3 |
| 20260505120430 | 48 | 245 | 2.0 | 2.0 | 0.00 | 0.00 | 0.00 | 53 | 1014.4 |
| 20260505115929 | 48 | 276 | 3.0 | 3.0 | 0.00 | 0.00 | 0.00 | 52 | 1014.1 |
| 20260505115426 | 48 | 267 | 2.0 | 2.0 | 0.00 | 0.00 | 0.00 | 51 | 1014.1 |
| 20260505114924 | 48 | 275 | 4.0 | 5.0 | 0.00 | 0.00 | 0.00 | 51 | 1013.9 |
| 20260505114420 | 48 | 267 | 5.0 | 7.0 | 0.00 | 0.00 | 0.00 | 50 | 1013.9 |
| 20260505113916 | 48 | 263 | 3.0 | 3.0 | 0.00 | 0.00 | 0.00 | 49 | 1013.9 |
| 20260505113413 | 48 | 249 | 6.0 | 12.0 | 0.00 | 0.00 | 0.00 | 49 | 1013.9 |
| 20260505112909 | 48 | 256 | 5.0 | 7.0 | 0.00 | 0.00 | 0.00 | 48 | 1014.1 |
| 20260505112407 | 49 | 253 | 4.0 | 5.0 | 0.00 | 0.00 | 0.00 | 48 | 1013.9 |
| 20260505111902 | 49 | 245 | 3.0 | 3.0 | 0.00 | 0.00 | 0.00 | 47 | 1013.8 |
| 20260505111357 | 49 | 270 | 6.0 | 10.0 | 0.00 | 0.00 | 0.00 | 47 | 1014.1 |
| 20260505110854 | 49 | 251 | 4.0 | 5.0 | 0.00 | 0.00 | 0.00 | 46 | 1014.2 |
| 20260505110351 | 49 | 288 | 6.0 | 7.0 | 0.00 | 0.00 | 0.00 | 46 | 1014.2 |
| 20260505101821 | 50 | 271 | 5.0 | 7.0 | 0.00 | 0.00 | 0.00 | 44 | 1013.8 |
| 20260505101316 | 50 | 285 | 3.0 | 3.0 | 0.00 | 0.00 | 0.00 | 43 | 1013.9 |
| 20260505100813 | 49 | 266 | 5.0 | 7.0 | 0.00 | 0.00 | 0.00 | 44 | 1014.1 |
| 20260505100310 | 49 | 253 | 2.0 | 3.0 | 0.00 | 0.00 | 0.00 | 43 | 1013.9 |
| 20260505095805 | 50 | 247 | 3.0 | 3.0 | 0.00 | 0.00 | 0.00 | 43 | 1014.2 |
| 20260505095304 | 49 | 241 | 5.0 | 5.0 | 0.00 | 0.00 | 0.00 | 43 | 1014.1 |
| 20260505094758 | 49 | 256 | 3.0 | 3.0 | 0.00 | 0.00 | 0.00 | 43 | 1013.9 |
| 20260505094256 | 49 | 271 | 0.0 | 0.0 | 0.00 | 0.00 | 0.00 | 43 | 1013.8 |
| 20260505093751 | 49 | 248 | 1.0 | 2.0 | 0.00 | 0.00 | 0.00 | 43 | 1013.8 |
| 20260505093249 | 50 | 251 | 0.0 | 0.0 | 0.00 | 0.00 | 0.00 | 43 | 1013.4 |
| 20260505092745 | 50 | 34 | 4.0 | 5.0 | 0.00 | 0.00 | 0.00 | 43 | 1013.6 |
| 20260505092244 | 50 | 247 | 3.0 | 3.0 | 0.00 | 0.00 | 0.00 | 43 | 1013.7 |
| 20260505091741 | 50 | 249 | 3.0 | 3.0 | 0.00 | 0.00 | 0.00 | 43 | 1013.7 |
| 20260505091239 | 51 | 268 | 5.0 | 9.0 | 0.00 | 0.00 | 0.00 | 43 | 1013.4 |
| 20260505090737 | 51 | 251 | 3.0 | 5.0 | 0.00 | 0.00 | 0.00 | 43 | 1013.7 |
| 20260505090235 | 51 | 268 | 5.0 | 9.0 | 0.00 | 0.00 | 0.00 | 42 | 1013.6 |
| 20260505085732 | 51 | 231 | 6.0 | 9.0 | 0.00 | 0.00 | 0.00 | 42 | 1013.8 |
| 20260505085230 | 51 | 264 | 7.0 | 10.0 | 0.00 | 0.00 | 0.00 | 41 | 1013.6 |
| 20260505084727 | 51 | 318 | 10.0 | 14.0 | 0.00 | 0.00 | 0.00 | 41 | 1013.7 |
| 20260505084226 | 52 | 241 | 10.0 | 14.0 | 0.00 | 0.00 | 0.00 | 41 | 1013.7 |
| 20260505083722 | 52 | 262 | 6.0 | 9.0 | 0.00 | 0.00 | 0.00 | 41 | 1013.9 |
| 20260505083219 | 52 | 292 | 7.0 | 12.0 | 0.00 | 0.00 | 0.00 | 41 | 1013.8 |
| 20260505082715 | 52 | 263 | 5.0 | 7.0 | 0.00 | 0.00 | 0.00 | 41 | 1013.8 |
| 20260505082213 | 52 | 276 | 3.0 | 5.0 | 0.00 | 0.00 | 0.00 | 42 | 1013.9 |
| 20260505081708 | 52 | 296 | 5.0 | 5.0 | 0.00 | 0.00 | 0.00 | 42 | 1014.2 |
| 20260505081206 | 52 | 282 | 6.0 | 9.0 | 0.00 | 0.00 | 0.00 | 42 | 1014.3 |
| 20260505080703 | 52 | 279 | 10.0 | 17.0 | 0.00 | 0.00 | 0.00 | 42 | 1014.1 |
| 20260505080158 | 52 | 285 | 9.0 | 12.0 | 0.00 | 0.00 | 0.00 | 42 | 1014.6 |
| 20260505075654 | 52 | 300 | 6.0 | 7.0 | 0.00 | 0.00 | 0.00 | 42 | 1014.7 |
| 20260505075151 | 53 | 337 | 6.0 | 12.0 | 0.00 | 0.00 | 0.00 | 42 | 1014.4 |
| 20260505074648 | 53 | 283 | 6.0 | 7.0 | 0.00 | 0.00 | 0.00 | 41 | 1014.4 |
| 20260505074145 | 53 | 271 | 5.0 | 7.0 | 0.00 | 0.00 | 0.00 | 41 | 1014.2 |
| 20260505073643 | 53 | 287 | 6.0 | 9.0 | 0.00 | 0.00 | 0.00 | 40 | 1014.2 |
| 20260505073141 | 53 | 208 | 3.0 | 3.0 | 0.00 | 0.00 | 0.00 | 39 | 1014.3 |
| 20260505072636 | 53 | 262 | 6.0 | 9.0 | 0.00 | 0.00 | 0.00 | 39 | 1013.8 |
| 20260505072133 | 53 | 272 | 7.0 | 10.0 | 0.00 | 0.00 | 0.00 | 39 | 1014.2 |
| 20260505071629 | 53 | 239 | 6.0 | 9.0 | 0.00 | 0.00 | 0.00 | 39 | 1013.9 |
| 20260505071127 | 53 | 224 | 5.0 | 5.0 | 0.00 | 0.00 | 0.00 | 39 | 1014.3 |
| 20260505070624 | 53 | 283 | 9.0 | 14.0 | 0.00 | 0.00 | 0.00 | 39 | 1014.2 |
| 20260505070120 | 54 | 260 | 5.0 | 7.0 | 0.00 | 0.00 | 0.00 | 39 | 1014.6 |
| 20260505065616 | 54 | 290 | 8.0 | 12.0 | 0.00 | 0.00 | 0.00 | 38 | 1014.4 |
| 20260505065113 | 54 | 260 | 7.0 | 10.0 | 0.00 | 0.00 | 0.00 | 38 | 1014.2 |
| 20260505064610 | 54 | 258 | 6.0 | 7.0 | 0.00 | 0.00 | 0.00 | 37 | 1014.2 |
| 20260505064108 | 54 | 262 | 8.0 | 10.0 | 0.00 | 0.00 | 0.00 | 37 | 1014.1 |
| 20260505063605 | 55 | 257 | 7.0 | 10.0 | 0.00 | 0.00 | 0.00 | 36 | 1014.2 |
| 20260505063101 | 55 | 228 | 11.0 | 15.0 | 0.00 | 0.00 | 0.00 | 36 | 1014.1 |
| 20260505062557 | 55 | 231 | 6.0 | 9.0 | 0.00 | 0.00 | 0.00 | 35 | 1014.4 |
| 20260505062055 | 55 | 303 | 10.0 | 12.0 | 0.00 | 0.00 | 0.00 | 35 | 1014.3 |
| 20260505061552 | 55 | 271 | 5.0 | 7.0 | 0.00 | 0.00 | 0.00 | 34 | 1014.4 |
| 20260505061050 | 55 | 272 | 9.0 | 12.0 | 0.00 | 0.00 | 0.00 | 34 | 1014.4 |
| 20260505060547 | 55 | 240 | 7.0 | 12.0 | 0.00 | 0.00 | 0.00 | 33 | 1014.3 |
| 20260505060044 | 56 | 236 | 8.0 | 14.0 | 0.00 | 0.00 | 0.00 | 33 | 1014.7 |
| 20260505055539 | 56 | 266 | 7.0 | 10.0 | 0.00 | 0.00 | 0.00 | 33 | 1014.4 |
| 20260505055036 | 56 | 258 | 6.0 | 9.0 | 0.00 | 0.00 | 0.00 | 33 | 1014.1 |
| 20260505054533 | 56 | 245 | 8.0 | 14.0 | 0.00 | 0.00 | 0.00 | 33 | 1014.4 |
| 20260505054032 | 56 | 323 | 6.0 | 9.0 | 0.00 | 0.00 | 0.00 | 33 | 1014.3 |
| 20260505053528 | 56 | 275 | 5.0 | 7.0 | 0.00 | 0.00 | 0.00 | 33 | 1014.4 |
| 20260505053025 | 56 | 248 | 8.0 | 10.0 | 0.00 | 0.00 | 0.00 | 32 | 1014.2 |
| 20260505052522 | 57 | 254 | 7.0 | 10.0 | 0.00 | 0.00 | 0.00 | 32 | 1014.6 |
| 20260505052020 | 57 | 317 | 11.0 | 12.0 | 0.00 | 0.00 | 0.00 | 32 | 1014.3 |
| 20260505051516 | 57 | 258 | 5.0 | 7.0 | 0.00 | 0.00 | 0.00 | 31 | 1014.3 |
| 20260505051014 | 57 | 236 | 7.0 | 10.0 | 0.00 | 0.00 | 0.00 | 31 | 1014.2 |
| 20260505050512 | 57 | 262 | 8.0 | 14.0 | 0.00 | 0.00 | 0.00 | 31 | 1013.9 |
| 20260505041440 | 58 | 248 | 7.0 | 12.0 | 0.00 | 0.00 | 0.00 | 31 | 1013.9 |
| 20260505040937 | 58 | 308 | 7.0 | 10.0 | 0.00 | 0.00 | 0.00 | 31 | 1014.2 |
| 20260505040434 | 59 | 265 | 7.0 | 14.0 | 0.00 | 0.00 | 0.00 | 31 | 1014.1 |
| 20260505035931 | 59 | 220 | 8.0 | 14.0 | 0.00 | 0.00 | 0.00 | 30 | 1014.1 |
| 20260505035427 | 59 | 281 | 11.0 | 14.0 | 0.00 | 0.00 | 0.00 | 30 | 1014.1 |
| 20260505034925 | 59 | 281 | 7.0 | 9.0 | 0.00 | 0.00 | 0.00 | 30 | 1014.1 |
| 20260505034421 | 59 | 214 | 8.0 | 10.0 | 0.00 | 0.00 | 0.00 | 30 | 1014.1 |
| 20260505033918 | 59 | 295 | 10.0 | 14.0 | 0.00 | 0.00 | 0.00 | 30 | 1014.1 |
| 20260505033415 | 59 | 283 | 7.0 | 10.0 | 0.00 | 0.00 | 0.00 | 29 | 1014.1 |
| 20260505032913 | 60 | 234 | 9.0 | 10.0 | 0.00 | 0.00 | 0.00 | 29 | 1013.8 |
| 20260505032410 | 60 | 238 | 9.0 | 14.0 | 0.00 | 0.00 | 0.00 | 29 | 1013.8 |
| 20260505031906 | 60 | 270 | 7.0 | 10.0 | 0.00 | 0.00 | 0.00 | 29 | 1013.7 |
| 20260505031403 | 60 | 255 | 11.0 | 15.0 | 0.00 | 0.00 | 0.00 | 28 | 1013.8 |
| 20260505030900 | 60 | 210 | 11.0 | 15.0 | 0.00 | 0.00 | 0.00 | 28 | 1013.9 |
| 20260505030356 | 60 | 257 | 10.0 | 14.0 | 0.00 | 0.00 | 0.00 | 28 | 1013.7 |
| 20260505025851 | 60 | 256 | 8.0 | 10.0 | 0.00 | 0.00 | 0.00 | 28 | 1013.7 |
| 20260505025349 | 60 | 263 | 8.0 | 12.0 | 0.00 | 0.00 | 0.00 | 27 | 1013.8 |
| 20260505024848 | 60 | 334 | 9.0 | 12.0 | 0.00 | 0.00 | 0.00 | 27 | 1013.7 |
| 20260505024345 | 61 | 314 | 12.0 | 15.0 | 0.00 | 0.00 | 0.00 | 27 | 1013.7 |
| 20260505023842 | 61 | 267 | 9.0 | 10.0 | 0.00 | 0.00 | 0.00 | 27 | 1013.6 |
| 20260505023339 | 61 | 276 | 8.0 | 10.0 | 0.00 | 0.00 | 0.00 | 27 | 1013.6 |
| 20260505022836 | 61 | 277 | 11.0 | 15.0 | 0.00 | 0.00 | 0.00 | 27 | 1013.7 |
| 20260505022333 | 61 | 258 | 8.0 | 12.0 | 0.00 | 0.00 | 0.00 | 27 | 1013.6 |
| 20260505021831 | 61 | 248 | 8.0 | 12.0 | 0.00 | 0.00 | 0.00 | 27 | 1013.3 |
| 20260505021327 | 61 | 248 | 5.0 | 9.0 | 0.00 | 0.00 | 0.00 | 27 | 1013.4 |
| 20260505020823 | 61 | 258 | 7.0 | 9.0 | 0.00 | 0.00 | 0.00 | 28 | 1013.6 |
| 20260505020319 | 61 | 266 | 7.0 | 10.0 | 0.00 | 0.00 | 0.00 | 27 | 1013.4 |
| 20260505015815 | 61 | 251 | 6.0 | 7.0 | 0.00 | 0.00 | 0.00 | 27 | 1013.4 |
| 20260505015313 | 61 | 276 | 11.0 | 17.0 | 0.00 | 0.00 | 0.00 | 27 | 1013.3 |
| 20260505014810 | 62 | 247 | 7.0 | 9.0 | 0.00 | 0.00 | 0.00 | 26 | 1013.6 |
| 20260505014307 | 62 | 256 | 5.0 | 7.0 | 0.00 | 0.00 | 0.00 | 26 | 1013.4 |
| 20260505013803 | 61 | 242 | 6.0 | 7.0 | 0.00 | 0.00 | 0.00 | 26 | 1013.6 |
| 20260505013301 | 62 | 294 | 4.0 | 5.0 | 0.00 | 0.00 | 0.00 | 25 | 1013.4 |
| 20260505012759 | 62 | 267 | 9.0 | 12.0 | 0.00 | 0.00 | 0.00 | 25 | 1013.3 |
| 20260505012256 | 62 | 255 | 3.0 | 5.0 | 0.00 | 0.00 | 0.00 | 25 | 1013.1 |
| 20260505011752 | 62 | 278 | 7.0 | 12.0 | 0.00 | 0.00 | 0.00 | 25 | 1013.1 |
| 20260505011249 | 62 | 299 | 5.0 | 7.0 | 0.00 | 0.00 | 0.00 | 24 | 1013.2 |
| 20260505010744 | 62 | 271 | 5.0 | 7.0 | 0.00 | 0.00 | 0.00 | 24 | 1012.9 |
| 20260505010241 | 62 | 234 | 7.0 | 10.0 | 0.00 | 0.00 | 0.00 | 24 | 1013.3 |
| 20260505005737 | 62 | 270 | 7.0 | 9.0 | 0.00 | 0.00 | 0.00 | 24 | 1012.9 |
| 20260505005234 | 62 | 273 | 8.0 | 10.0 | 0.00 | 0.00 | 0.00 | 23 | 1013.2 |
| 20260505004732 | 62 | 269 | 7.0 | 10.0 | 0.00 | 0.00 | 0.00 | 23 | 1013.1 |
| 20260505004228 | 62 | 293 | 7.0 | 9.0 | 0.00 | 0.00 | 0.00 | 23 | 1012.9 |
| 20260505003725 | 63 | 239 | 5.0 | 7.0 | 0.00 | 0.00 | 0.00 | 22 | 1012.9 |
| 20260505003223 | 63 | 243 | 6.0 | 7.0 | 0.00 | 0.00 | 0.00 | 22 | 1013.2 |
| 20260505002719 | 63 | 224 | 12.0 | 14.0 | 0.00 | 0.00 | 0.00 | 22 | 1013.2 |
| 20260505002217 | 63 | 254 | 6.0 | 7.0 | 0.00 | 0.00 | 0.00 | 22 | 1013.4 |
| 20260505001714 | 63 | 273 | 7.0 | 12.0 | 0.00 | 0.00 | 0.00 | 21 | 1013.2 |
| 20260505001212 | 63 | 239 | 5.0 | 7.0 | 0.00 | 0.00 | 0.00 | 21 | 1013.2 |
| 20260505000708 | 63 | 307 | 8.0 | 9.0 | 0.00 | 0.00 | 0.00 | 21 | 1013.3 |
| 20260505000206 | 64 | 276 | 5.0 | 7.0 | 0.00 | 0.00 | 0.00 | 21 | 1013.2 |
| 20260504235703 | 63 | 248 | 8.0 | 10.0 | 0.00 | 0.00 | 0.00 | 21 | 1013.2 |
| 20260504235158 | 64 | 192 | 8.0 | 14.0 | 0.00 | 0.00 | 0.00 | 20 | 1013.2 |
| 20260504234656 | 64 | 290 | 10.0 | 17.0 | 0.00 | 0.00 | 0.00 | 20 | 1013.1 |
| 20260504234153 | 64 | 290 | 13.0 | 17.0 | 0.00 | 0.00 | 0.00 | 20 | 1013.1 |
| 20260504233649 | 64 | 269 | 9.0 | 10.0 | 0.00 | 0.00 | 0.00 | 20 | 1013.1 |
| 20260504233145 | 64 | 274 | 9.0 | 12.0 | 0.00 | 0.00 | 0.00 | 20 | 1012.9 |
| 20260504232643 | 64 | 244 | 8.0 | 10.0 | 0.00 | 0.00 | 0.00 | 19 | 1013.3 |
| 20260504232140 | 64 | 235 | 7.0 | 10.0 | 0.00 | 0.00 | 0.00 | 19 | 1013.1 |
| 20260504231636 | 64 | 241 | 9.0 | 14.0 | 0.00 | 0.00 | 0.00 | 19 | 1013.2 |
| 20260504231132 | 65 | 293 | 10.0 | 12.0 | 0.00 | 0.00 | 0.00 | 18 | 1012.9 |
| 20260504230629 | 65 | 276 | 7.0 | 12.0 | 0.00 | 0.00 | 0.00 | 19 | 1012.8 |
| 20260504230128 | 65 | 253 | 7.0 | 9.0 | 0.00 | 0.00 | 0.00 | 18 | 1013.1 |
| 20260504225626 | 65 | 251 | 11.0 | 14.0 | 0.00 | 0.00 | 0.00 | 18 | 1013.2 |
| 20260504225121 | 65 | 245 | 13.0 | 17.0 | 0.00 | 0.00 | 0.00 | 19 | 1013.1 |
| 20260504224618 | 65 | 258 | 5.0 | 7.0 | 0.00 | 0.00 | 0.00 | 21 | 1013.3 |
| 20260504224115 | 65 | 236 | 11.0 | 14.0 | 0.00 | 0.00 | 0.00 | 22 | 1013.3 |
| 20260504223612 | 66 | 232 | 11.0 | 15.0 | 0.00 | 0.00 | 0.00 | 23 | 1013.4 |
| 20260504223108 | 65 | 263 | 9.0 | 10.0 | 0.00 | 0.00 | 0.00 | 23 | 1013.3 |
| 20260504222605 | 65 | 255 | 13.0 | 15.0 | 0.00 | 0.00 | 0.00 | 24 | 1013.2 |
| 20260504222102 | 66 | 246 | 8.0 | 15.0 | 0.00 | 0.00 | 0.00 | 22 | 1013.6 |
| 20260504221559 | 66 | 266 | 13.0 | 17.0 | 0.00 | 0.00 | 0.00 | 22 | 1013.6 |
| 20260504221056 | 66 | 293 | 11.0 | 14.0 | 0.00 | 0.00 | 0.00 | 24 | 1013.6 |
| 20260504220553 | 67 | 317 | 9.0 | 15.0 | 0.00 | 0.00 | 0.00 | 23 | 1013.7 |
| 20260504220050 | 67 | 271 | 10.0 | 17.0 | 0.00 | 0.00 | 0.00 | 24 | 1013.6 |
| 20260504215546 | 67 | 309 | 10.0 | 12.0 | 0.00 | 0.00 | 0.00 | 24 | 1013.7 |
| 20260504215044 | 68 | 261 | 11.0 | 12.0 | 0.00 | 0.00 | 0.00 | 23 | 1013.7 |
| 20260504214539 | 68 | 214 | 10.0 | 17.0 | 0.00 | 0.00 | 0.00 | 24 | 1013.9 |
| 20260504214036 | 67 | 295 | 7.0 | 9.0 | 0.00 | 0.00 | 0.00 | 24 | 1014.2 |
| 20260504213532 | 66 | 246 | 11.0 | 17.0 | 0.00 | 0.00 | 0.00 | 24 | 1014.3 |
| 20260504213030 | 67 | 286 | 14.0 | 19.0 | 0.00 | 0.00 | 0.00 | 23 | 1014.2 |
| 20260504212525 | 66 | 247 | 9.0 | 12.0 | 0.00 | 0.00 | 0.00 | 25 | 1013.9 |
| 20260504212023 | 66 | 255 | 12.0 | 14.0 | 0.00 | 0.00 | 0.00 | 24 | 1014.2 |
| 20260504211520 | 66 | 281 | 10.0 | 17.0 | 0.00 | 0.00 | 0.00 | 25 | 1014.4 |
| 20260504211017 | 67 | 330 | 9.0 | 10.0 | 0.00 | 0.00 | 0.00 | 24 | 1014.4 |
| 20260504210514 | 66 | 241 | 21.0 | 29.0 | 0.00 | 0.00 | 0.00 | 24 | 1013.9 |
| 20260504210011 | 68 | 279 | 8.0 | 15.0 | 0.00 | 0.00 | 0.00 | 24 | 1014.3 |
| 20260504205509 | 66 | 322 | 12.0 | 15.0 | 0.00 | 0.00 | 0.00 | 23 | 1014.3 |
| 20260504205006 | 66 | 239 | 12.0 | 14.0 | 0.00 | 0.00 | 0.00 | 23 | 1014.4 |
| 20260504204503 | 66 | 310 | 14.0 | 21.0 | 0.00 | 0.00 | 0.00 | 24 | 1014.7 |
| 20260504204003 | 65 | 291 | 10.0 | 12.0 | 0.00 | 0.00 | 0.00 | 25 | 1014.8 |
| 20260504203500 | 64 | 224 | 16.0 | 19.0 | 0.00 | 0.00 | 0.00 | 25 | 1014.9 |
| 20260504202956 | 64 | 242 | 11.0 | 12.0 | 0.00 | 0.00 | 0.00 | 25 | 1015.1 |
| 20260504202452 | 65 | 238 | 12.0 | 14.0 | 0.00 | 0.00 | 0.00 | 25 | 1015.1 |
| 20260504201949 | 64 | 304 | 14.0 | 15.0 | 0.00 | 0.00 | 0.00 | 26 | 1014.9 |
| 20260504201446 | 65 | 264 | 11.0 | 17.0 | 0.00 | 0.00 | 0.00 | 25 | 1015.3 |
| 20260504200944 | 64 | 227 | 11.0 | 17.0 | 0.00 | 0.00 | 0.00 | 26 | 1015.2 |
| 20260504200441 | 65 | 306 | 13.0 | 19.0 | 0.00 | 0.00 | 0.00 | 26 | 1015.7 |
| 20260504195938 | 64 | 13 | 12.0 | 19.0 | 0.00 | 0.00 | 0.00 | 26 | 1015.7 |
| 20260504195434 | 64 | 247 | 8.0 | 10.0 | 0.00 | 0.00 | 0.00 | 26 | 1015.8 |
| 20260504194931 | 63 | 266 | 7.0 | 9.0 | 0.00 | 0.00 | 0.00 | 27 | 1015.6 |
| 20260504194426 | 62 | 278 | 8.0 | 10.0 | 0.00 | 0.00 | 0.00 | 28 | 1015.4 |
| 20260504193923 | 62 | 285 | 12.0 | 15.0 | 0.00 | 0.00 | 0.00 | 28 | 1015.7 |
| 20260504193420 | 62 | 291 | 12.0 | 17.0 | 0.00 | 0.00 | 0.00 | 28 | 1015.4 |
| 20260504192919 | 64 | 266 | 10.0 | 14.0 | 0.00 | 0.00 | 0.00 | 28 | 1015.3 |
| 20260504192415 | 63 | 313 | 15.0 | 22.0 | 0.00 | 0.00 | 0.00 | 27 | 1015.7 |
| 20260504191914 | 63 | 258 | 12.0 | 15.0 | 0.00 | 0.00 | 0.00 | 27 | 1015.8 |
| 20260504191411 | 64 | 240 | 5.0 | 9.0 | 0.00 | 0.00 | 0.00 | 26 | 1016.0 |
| 20260504190906 | 64 | 253 | 8.0 | 9.0 | 0.00 | 0.00 | 0.00 | 28 | 1015.7 |
| 20260504190402 | 63 | 264 | 11.0 | 15.0 | 0.00 | 0.00 | 0.00 | 27 | 1015.9 |
| 20260504185859 | 62 | 227 | 11.0 | 14.0 | 0.00 | 0.00 | 0.00 | 27 | 1016.3 |
| 20260504185356 | 63 | 294 | 11.0 | 15.0 | 0.00 | 0.00 | 0.00 | 26 | 1016.2 |
| 20260504184852 | 64 | 247 | 13.0 | 21.0 | 0.00 | 0.00 | 0.00 | 26 | 1016.3 |
| 20260504184348 | 63 | 241 | 11.0 | 15.0 | 0.00 | 0.00 | 0.00 | 26 | 1015.9 |
| 20260504183844 | 62 | 250 | 12.0 | 22.0 | 0.00 | 0.00 | 0.00 | 26 | 1015.8 |
| 20260504183342 | 63 | 277 | 16.0 | 22.0 | 0.00 | 0.00 | 0.00 | 25 | 1016.2 |
| 20260504182839 | 63 | 266 | 7.0 | 10.0 | 0.00 | 0.00 | 0.00 | 24 | 1016.4 |
| 20260504182337 | 63 | 279 | 13.0 | 22.0 | 0.00 | 0.00 | 0.00 | 26 | 1016.3 |
| 20260504181834 | 63 | 234 | 9.0 | 14.0 | 0.00 | 0.00 | 0.00 | 27 | 1016.5 |
| 20260504181331 | 63 | 278 | 10.0 | 15.0 | 0.00 | 0.00 | 0.00 | 29 | 1016.5 |
| 20260504180830 | 63 | 236 | 10.0 | 19.0 | 0.00 | 0.00 | 0.00 | 29 | 1016.4 |
| 20260504180328 | 63 | 303 | 11.0 | 14.0 | 0.00 | 0.00 | 0.00 | 28 | 1016.5 |
| 20260504175826 | 63 | 228 | 11.0 | 19.0 | 0.00 | 0.00 | 0.00 | 29 | 1016.7 |
| 20260504175322 | 63 | 246 | 9.0 | 17.0 | 0.00 | 0.00 | 0.00 | 31 | 1016.8 |
| 20260504174820 | 62 | 275 | 5.0 | 7.0 | 0.00 | 0.00 | 0.00 | 32 | 1016.8 |
| 20260504174317 | 62 | 228 | 11.0 | 19.0 | 0.00 | 0.00 | 0.00 | 33 | 1017.2 |
| 20260504173814 | 60 | 235 | 7.0 | 10.0 | 0.00 | 0.00 | 0.00 | 32 | 1017.2 |
| 20260504173311 | 60 | 257 | 7.0 | 10.0 | 0.00 | 0.00 | 0.00 | 33 | 1017.3 |
| 20260504172809 | 59 | 251 | 11.0 | 19.0 | 0.00 | 0.00 | 0.00 | 33 | 1017.2 |
| 20260504172305 | 59 | 212 | 6.0 | 9.0 | 0.00 | 0.00 | 0.00 | 34 | 1017.0 |
| 20260504171801 | 59 | 234 | 9.0 | 12.0 | 0.00 | 0.00 | 0.00 | 35 | 1017.4 |
| 20260504171258 | 59 | 257 | 9.0 | 14.0 | 0.00 | 0.00 | 0.00 | 36 | 1017.3 |
| 20260504170755 | 59 | 271 | 8.0 | 12.0 | 0.00 | 0.00 | 0.00 | 36 | 1017.5 |
| 20260504170252 | 59 | 261 | 8.0 | 10.0 | 0.00 | 0.00 | 0.00 | 36 | 1017.3 |